DW6033 Weather Reports


time (UTC)temp
C
wind
direction
speed
KPH
gust
KPH
rain 1hr
cm
rain 24hr
cm
rain mn
cm
humidity
%
barometer
mb
20260505011513 11 294 6.4 9.7 0.00 0.00 0.00 69 1007.8
20260505010012 11 290 4.8 11.3 0.00 0.00 0.00 69 1007.6
20260505004519 11 17 1.6 3.2 0.00 0.00 0.00 76 1007.5
20260505003011 11 105 0.0 4.8 0.00 0.00 0.00 73 1007.2
20260505001511 13 298 0.0 9.7 0.00 0.00 0.00 66 1007.0
20260505000020 13 304 6.4 8.0 0.00 0.00 0.00 64 1006.9
20260504234510 13 290 3.2 8.0 0.00 0.00 0.00 66 1006.7
20260504233011 12 325 3.2 6.4 0.00 0.00 0.00 72 1006.6
20260504231509 12 38 1.6 9.7 0.00 0.00 0.00 68 1006.4
20260504230009 13 34 4.8 9.7 0.00 0.00 0.00 68 1006.1
20260504224505 14 306 4.8 14.5 0.00 0.00 0.00 67 1005.9
20260504223007 12 134 8.0 16.1 0.00 0.00 0.00 71 1005.8
20260504221503 18 219 3.2 17.7 0.00 0.00 0.00 47 1005.7
20260504220003 18 288 14.5 24.1 0.00 0.00 0.00 46 1005.7
20260504214502 18 294 9.7 27.4 0.00 0.00 0.00 46 1005.7
20260504213002 18 238 17.7 33.8 0.00 0.00 0.00 46 1005.6
20260504211558 18 263 14.5 27.4 0.00 0.00 0.00 49 1005.6
20260504210059 17 292 12.9 33.8 0.00 0.00 0.00 52 1005.8
20260504204553 17 277 16.1 25.7 0.00 0.00 0.00 53 1005.7
20260504203053 17 263 14.5 25.7 0.00 0.00 0.00 55 1005.7
20260504201600 16 281 17.7 32.2 0.00 0.00 0.00 57 1005.7
20260504200047 16 262 14.5 24.1 0.00 0.00 0.00 57 1005.6
20260504194549 15 259 9.7 24.1 0.00 0.05 0.00 60 1005.7
20260504193043 15 243 9.7 16.1 0.00 0.05 0.00 61 1005.7
20260504191554 15 279 9.7 17.7 0.00 0.05 0.00 63 1006.1
20260504190046 15 285 11.3 19.3 0.00 0.05 0.00 63 1006.3
20260504184555 14 275 8.0 16.1 0.00 0.13 0.00 67 1006.3
20260504183042 13 262 8.0 14.5 0.00 0.13 0.00 71 1006.6
20260504181540 14 304 14.5 20.9 0.00 0.13 0.00 62 1006.8
20260504180042 15 219 6.4 20.9 0.00 0.13 0.00 54 1006.4
20260504174540 15 265 14.5 29.0 0.00 0.23 0.00 51 1006.4
20260504173037 15 209 14.5 37.0 0.00 0.23 0.00 51 1006.0
20260504171536 15 228 8.0 22.5 0.00 0.23 0.00 53 1005.7
20260504081512 1 317 3.2 4.8 0.00 1.35 0.00 89 1008.7
20260504044537 6 285 0.0 11.3 0.00 1.55 0.00 60 1007.7
20260504043035 6 344 1.6 12.9 0.00 1.55 0.00 60 1007.6
20260504041532 6 311 0.0 6.4 0.00 1.55 0.00 61 1007.5
20260504040031 6 321 3.2 11.3 0.00 1.55 0.00 58 1007.4
20260504034534 7 288 9.7 19.3 0.00 1.55 1.55 57 1007.2
20260504033044 7 313 4.8 12.9 0.00 1.55 1.55 59 1007.0
20260504031531 7 297 3.2 6.4 0.00 1.55 1.55 58 1006.9
20260504030027 7 266 1.6 9.7 0.00 1.55 1.55 55 1006.8
20260504024541 7 270 8.0 19.3 0.00 1.55 1.55 55 1006.6
20260504023026 7 278 6.4 14.5 0.00 1.55 1.55 53 1006.5
20260504021526 7 289 3.2 14.5 0.00 1.55 1.55 54 1006.4
20260504020028 7 315 4.8 14.5 0.00 1.55 1.55 53 1006.3
20260504014526 8 309 6.4 16.1 0.00 1.55 1.55 52 1006.3
20260504013025 8 293 4.8 19.3 0.00 1.55 1.55 53 1006.1